Regional Weather Roundup
Issued by NWS

Home | Current Version | Previous Version | Text Only | Print | Product List | Glossary On
Versions: 1 2 3 4 5 6 7 8 9 10 11 12 13 14 15 16 17 18 19 20 21 22 23 24 25 26 27 28 29 30 31 32 33 34 35 36 37 38 39 40 41 42 43 44 45 46 47 48 49 50
000
ASUS42 KFFC 190803
RWRGA
WEATHER ROUNDUP FOR GEORGIA
NATIONAL WEATHER SERVICE PEACHTREE CITY GA
400 AM EDT SAT AUG 19 2017

NOTE: "FAIR" INDICATES FEW OR NO CLOUDS BELOW 12,000 FEET WITH NO
SIGNIFICANT WEATHER AND/OR OBSTRUCTIONS TO VISIBILITY.

* = USE WITH CAUTION. THE STATIONS MARKED WITH AN ASTERISK MAY NOT
REPORT WEATHER SUCH AS PRECIPITATION, FOG, OR THUNDER AND ARE NOT
QUALITY CONTROLLED BY NWS.

THE REMARK "TC" DENOTES TEMPERATURE READING IN DEGREES CELSIUS.

GAZ001>058-190900-
NORTH GEORGIA

CITY           SKY/WX    TMP DP  RH WIND       PRES   REMARKS
ATLANTA        PTCLDY    71  65  81 W7        29.99F
ATHENS         CLEAR     70  68  93 CALM      29.97S
PEACHTREE CITY CLEAR     68  67  96 CALM      30.00F
ROME           CLEAR     67  67 100 CALM      29.99R
WEST ATLANTA   CLEAR     73  67  81 S5        29.99S
GAINESVILLE    CLEAR     70  67  90 W3        30.01S
CARTERSVILLE   CLEAR     66  66 100 CALM      30.00S


CITY           SKY/WX    TMP DP  RH WIND       PRES   REMARKS
MARIETTA       CLEAR     70  65  83 W6        29.99F
KENNESAW*      CLEAR     72  65  78 W5        30.00F
CANTON*        CLEAR     68  68 100 CALM      30.02S
$$

GAZ059>098-102>109-190900-
CENTRAL GEORGIA

CITY           SKY/WX    TMP DP  RH WIND       PRES   REMARKS
AUGUSTA-BUSH   CLEAR     77  74  90 CALM      29.92S
AUGUSTA-DANIEL CLEAR     80  68  66 W5        29.94F
COLUMBUS       CLEAR     77  71  82 N3        29.96F
MACON          CLEAR     72  70  93 CALM      29.96F


CITY           SKY/WX    TMP DP  RH WIND       PRES   REMARKS
LAGRANGE*      CLEAR     70  69  98 CALM      29.99F
SYLVANIA*      PTCLDY    78  77  97 CALM      29.95S
MILLEDGEVILLE* CLEAR     73  72  94 CALM      29.96S
$$

GAZ099>101-110>166-190900-
SOUTH GEORGIA

CITY           SKY/WX    TMP DP  RH WIND       PRES   REMARKS
SAVANNAH       MOCLDY    78  74  87 SW5       29.95F
VALDOSTA       CLEAR     74  74 100 CALM      29.96F
ALMA           CLEAR     76  74  93 S3        29.96F
ST SIMONS      CLEAR     78  75  90 W6        29.96F
FT STEWART     CLEAR     77  73  87 SW6       29.93F
ALBANY         CLEAR     77  75  93 CALM      29.98F
HUNTER AFB     PTCLDY    79  73  83 W6        29.93S
MOODY AFB      CLEAR     76  74  95 CALM      29.95F
BRUNSWICK      CLEAR     75  72  88 CALM      29.97S


CITY           SKY/WX    TMP DP  RH WIND       PRES   REMARKS
BAINBRIDGE*    CLOUDY    77  77 100 CALM      29.97S
MOULTRIE*      CLEAR     77  77 100 CALM      29.97F
VIDALIA*       CLEAR     77  75  94 CALM      29.96S
WAYCROSS*      CLEAR     75  72  90 CALM      29.96F
DOUGLAS*         N/A     75  73  94 CALM      29.97F
$$



USA.gov is the U.S. government's official web portal to all federal, state and local government web resources and services.